Location: Dakoming
(43.5975°N, 104.0727°W)
Time: 03:06:38
(UTC+00:00)

Tiangong - Visible Passes

Search period start: 01 December 2023 00:00
Search period end: 11 December 2023 00:00
Orbit: 373 x 384 km, 41.5° (Epoch: 30 November)

Date Brightness Start Highest point End Pass type
(mag) Time Alt. Az. Time Alt. Az. Time Alt. Az.
01 Dec -1.0 00:15:23 10° W 00:18:23 41° SSW 00:21:23 10° ESE visible
01 Dec 0.9 01:52:56 10° WSW 01:53:59 13° SW 01:53:59 13° SW visible
02 Dec 0.2 00:50:43 10° WSW 00:53:12 21° SSW 00:55:39 10° SSE visible
02 Dec -0.3 23:48:47 10° W 23:51:38 31° SSW 23:54:28 10° SE visible
04 Dec 0.8 00:24:20 10° WSW 00:26:10 15° SSW 00:28:00 10° S visible
